Snowfall_Accumulation
0.0 0.1 0.1 0.0 0.0 0.0 0.0 0.0 0.0 0.0 0.0 0.0 0.0 0.0 0.0 0.0 0.0 0.0 0.0 0.0 0.0 0.0 0.0 0.0 0.0 0.0 0.0 0.0 0.0 0.0 0.0 0.0 0.0 0.0 0.0 0.0 0.0 0.0 0.0 0.0 0.0 0.0 0.0 0.0
0.1 0.1 0.0 0.0 0.0 0.0 0.0 0.0 0.0 0.0 0.0 0.0 0.0 0.0 0.0 0.0 0.0 0.0 0.0 0.0 0.0 0.0 0.0 0.0 0.0 0.0 0.0 0.0 0.0 0.0 0.0 0.0 0.0 0.0 0.0 0.0 0.0 0.0 0.0 0.0 0.0 0.0 0.0 0.0
0.6 0.0 0.0 0.0 0.0 0.1 0.1 0.0 0.0 0.0 0.0 0.0 0.0 0.0 0.0 0.0 0.0 0.0 0.0 0.0 0.0 0.0 0.0 0.0 0.0 0.0 0.0 0.0 0.0 0.0 0.0 0.0 0.0 0.0 0.0 0.0 0.0 0.0 0.0 0.0 0.0 0.0 0.0 0.0
0.1 0.0 0.0 0.1 0.0 0.0 0.1 0.0 0.0 0.0 0.1 0.1 0.1 0.3 0.0 0.0 0.0 0.0 0.0 0.0 0.0 0.0 0.0 0.0 0.0 0.0 0.0 0.0 0.0 0.0 0.0 0.0 0.0 0.0 0.0 0.0 0.0 0.0 0.0 0.0 0.0 0.0 0.0 0.0
0.3 0.0 0.0 0.1 0.0 0.0 0.0 0.0 0.0 0.0 0.1 0.6 0.1 0.7 0.0 0.0 0.0 0.0 0.0 0.0 0.0 0.0 0.0 0.0 0.0 0.0 0.0 0.0 0.0 0.0 0.0 0.0 0.0 0.0 0.0 0.0 0.0 0.0 0.0 0.0 0.0 0.0 0.0 0.0
0.2 0.0 0.0 0.0 0.0 0.0 0.1 0.0 0.1 0.1 0.6 7.8 0.7 1.0 0.2 0.0 0.0 0.0 0.0 0.0 0.0 0.0 0.0 0.0 0.0 0.0 0.0 0.0 0.0 0.0 0.0 0.0 0.0 0.0 0.0 0.0 0.0 0.0 0.0 0.0 0.0 0.0 0.0 0.0
2.7 0.3 0.1 0.1 0.1 0.0 0.1 2.0 14.9 18.0 18.4 9.1 0.1 0.4 0.1 0.0 0.0 0.0 0.0 0.0 0.0 0.0 0.0 0.0 0.0 0.0 0.0 0.0 0.0 0.0 0.0 0.0 0.0 0.0 0.0 0.0 0.0 0.0 0.0 0.0 0.0 0.0 0.0 0.0
7.5 6.5 0.2 0.1 0.1 0.4 0.1 0.6 8.0 10.9 7.1 2.1 0.2 0.3 0.0 0.0 0.0 0.0 0.0 0.0 0.0 0.0 0.0 0.0 0.0 0.0 0.0 0.0 0.0 0.0 0.0 0.0 0.0 0.0 0.0 0.0 0.0 0.0 0.0 0.0 0.0 0.0 0.0 0.0
3.4 3.0 0.0 0.0 0.0 0.0 0.4 1.0 0.2 2.6 5.3 2.8 1.0 0.1 0.0 0.0 0.0 0.0 0.0 0.0 0.0 0.0 0.0 0.0 0.0 0.0 0.0 0.0 0.0 0.0 0.0 0.0 0.0 0.0 0.0 0.0 0.0 0.0 0.0 0.0 0.0 0.0 0.0 0.0
1.2 2.7 0.2 0.0 0.1 0.0 0.1 0.1 1.6 8.8 13.2 6.9 1.7 0.2 0.0 0.0 0.0 0.0 0.0 0.0 0.0 0.0 0.0 0.0 0.0 0.0 0.0 0.0 0.0 0.0 0.0 0.0 0.0 0.0 0.0 0.0 0.0 0.0 0.0 0.0 0.0 0.0 0.0 0.0
1.0 5.3 2.9 0.3 0.7 0.5 0.4 0.9 2.6 5.5 9.1 7.0 2.9 0.2 0.0 0.0 0.0 0.0 0.0 0.0 0.0 0.0 0.0 0.0 0.0 0.0 0.0 0.0 0.0 0.0 0.0 0.0 0.0 0.0 0.0 0.0 0.0 0.0 0.0 0.0 0.0 0.0 0.0 0.0
0.8 4.9 9.5 1.7 0.1 0.1 0.3 0.5 1.3 9.2 10.6 5.9 4.5 1.5 0.0 0.0 0.0 0.0 0.0 0.0 0.0 0.0 0.0 0.0 0.0 0.0 0.0 0.0 0.0 0.0 0.0 0.0 0.0 0.0 0.0 0.0 0.0 0.0 0.0 0.0 0.0 0.0 0.0 0.0
1.5 7.1 20.2 8.0 1.1 0.3 0.9 0.8 1.0 3.3 7.9 9.7 8.3 3.4 0.0 0.1 0.0 0.0 0.0 0.0 0.0 0.0 0.0 0.0 0.0 0.0 0.0 0.0 0.0 0.0 0.0 0.0 0.0 0.0 0.0 0.0 0.0 0.0 0.0 0.0 0.0 0.0 0.0 0.0
1.5 11.6 14.5 12.1 3.7 2.1 3.3 2.3 2.0 5.0 12.5 10.7 5.2 2.0 0.6 0.2 0.0 0.1 0.0 0.0 0.1 0.0 0.0 0.0 0.0 0.0 0.0 0.0 0.0 0.0 0.0 0.0 0.0 0.0 0.0 0.0 0.0 0.0 0.0 0.0 0.0 0.0 0.0 0.0
2.5 16.2 9.2 4.0 2.1 2.1 2.9 2.7 2.2 3.0 3.7 6.1 2.7 1.1 0.5 0.5 0.3 0.2 0.1 0.0 0.0 0.0 0.0 0.0 0.0 0.0 0.0 0.0 0.0 0.0 0.0 0.0 0.0 0.0 0.0 0.0 0.0 0.0 0.0 0.0 0.0 0.0 0.0 0.0
4.6 14.8 11.3 7.6 2.5 2.6 4.1 2.6 1.9 1.9 2.0 2.1 1.5 1.3 1.0 0.9 0.5 0.3 0.2 0.1 0.0 0.0 0.0 0.0 0.0 0.0 0.0 0.0 0.0 0.0 0.0 0.0 0.0 0.0 0.0 0.0 0.0 0.0 0.0 0.0 0.0 0.0 0.0 0.0
8.6 15.3 21.8 16.5 5.0 8.9 13.2 2.2 0.8 0.7 0.6 0.9 1.6 1.9 1.7 0.7 0.2 0.2 0.2 0.1 0.1 0.0 0.1 0.0 0.0 0.0 0.0 0.0 0.0 0.0 0.0 0.0 0.0 0.0 0.0 0.0 0.0 0.0 0.1 0.0 0.0 0.0 0.0 0.0
8.7 15.3 27.1 29.6 20.0 24.5 5.8 0.1 0.1 0.3 0.5 0.6 1.3 2.0 1.5 0.6 0.1 0.2 0.2 0.1 0.0 0.0 0.0 0.0 0.1 0.0 0.0 0.1 0.0 0.0 0.0 0.0 0.0 0.1 0.0 0.0 0.0 0.0 0.0 0.0 0.0 0.0 0.0 0.0
1.9 9.0 28.5 37.6 30.2 15.8 1.4 0.3 0.3 0.5 1.1 1.6 1.6 1.4 0.7 0.2 0.0 0.1 0.1 0.1 0.1 0.0 0.0 0.0 0.0 0.0 0.1 0.1 0.0 0.0 0.0 0.0 0.0 0.1 0.1 0.1 0.1 0.1 0.0 0.1 0.1 0.1 0.1 0.2
1.5 4.7 21.2 38.4 32.9 15.0 1.6 0.7 0.4 0.6 2.9 3.3 2.8 2.1 1.2 0.6 0.6 0.4 0.2 0.1 0.1 0.1 0.1 0.1 0.1 0.0 0.1 0.1 0.1 0.0 0.0 0.0 0.0 0.1 0.1 0.1 0.1 0.2 0.2 0.2 0.2 0.4 0.4 0.5
11.1 19.0 28.5 29.7 25.2 10.9 2.2 1.1 0.7 2.7 4.9 3.5 2.3 1.6 1.1 1.0 1.1 0.9 0.5 0.2 0.1 0.0 0.1 0.1 0.1 0.1 0.1 0.1 0.1 0.1 0.1 0.1 0.1 0.1 0.1 0.1 0.1 0.2 0.2 0.3 0.3 0.4 0.5 0.7
6.0 13.1 16.8 17.2 20.4 10.9 1.2 1.2 2.1 3.0 2.2 1.9 1.2 0.9 1.0 0.9 0.7 0.6 0.4 0.2 0.1 0.1 0.1 0.1 0.1 0.1 0.1 0.2 0.2 0.2 0.2 0.2 0.2 0.2 0.2 0.2 0.2 0.3 0.3 0.5 0.7 0.8 1.0 1.3
3.0 3.7 4.6 6.3 4.9 1.3 0.7 1.1 1.4 1.3 1.1 0.6 0.5 0.4 0.5 0.5 0.4 0.3 0.2 0.2 0.2 0.2 0.2 0.2 0.2 0.2 0.2 0.2 0.3 0.4 0.4 0.3 0.4 0.4 0.5 0.6 0.6 0.6 0.8 1.0 1.2 1.6 1.8 2.1
2.1 1.7 2.8 3.8 2.0 1.4 1.0 1.0 1.0 0.9 0.9 0.6 0.5 0.5 0.4 0.4 0.4 0.3 0.2 0.2 0.2 0.2 0.4 0.4 0.5 0.4 0.5 0.4 0.5 0.6 0.5 0.6 0.6 0.8 0.8 0.9 1.1 1.3 1.5 1.6 1.8 2.3 2.6 3.0
2.5 2.6 3.7 4.0 2.2 1.8 1.4 1.3 1.3 1.1 1.0 0.9 0.7 0.6 0.5 0.5 0.4 0.4 0.4 0.3 0.3 0.4 0.4 0.5 0.7 0.8 0.8 0.8 0.7 0.8 0.9 0.9 0.9 1.0 1.0 1.1 1.2 1.5 1.9 2.1 2.4 2.6 2.9 3.4
1.6 2.1 2.9 3.2 2.0 2.3 1.9 1.3 1.3 1.5 1.5 1.3 1.1 0.9 0.8 0.8 0.7 0.5 0.5 0.5 0.5 0.5 0.7 0.7 0.7 0.8 0.9 1.0 1.0 1.0 1.1 1.2 1.3 1.3 1.2 1.3 1.4 1.6 1.9 2.2 2.6 3.0 3.3 3.7